Time,TemperatureF,DewpointF,PressureIn,WindDirection,WindDirectionDegrees,WindSpeedMPH,WindSpeedGustMPH,Humidity,HourlyPrecipIn,Conditions,Clouds,dailyrainin,SoftwareType,DateUTC
2013-05-15 00:03:00,38.0,31.0,29.88,SSW,212,0.0,0.0,77,0.00,,,0.00,,2013-05-15 04:03:00,
2013-05-15 00:12:00,38.0,31.0,29.88,SSW,212,0.0,0.0,77,0.00,,,0.00,,2013-05-15 04:12:00,
2013-05-15 00:33:00,36.0,31.0,29.89,SSW,212,0.0,0.0,81,0.00,,,0.00,,2013-05-15 04:33:00,
2013-05-15 00:43:00,36.0,31.0,29.89,SSW,212,0.0,0.0,81,0.00,,,0.00,,2013-05-15 04:43:00,
2013-05-15 00:52:00,36.0,31.0,29.89,SSW,212,0.0,0.0,83,0.00,,,0.00,,2013-05-15 04:52:00,
2013-05-15 01:02:00,36.0,32.0,29.89,SSW,212,0.0,0.0,84,0.00,,,0.00,,2013-05-15 05:02:00,
2013-05-15 01:12:00,36.0,31.0,29.89,SSW,212,0.0,0.0,83,0.00,,,0.00,,2013-05-15 05:12:00,
2013-05-15 01:22:00,36.0,31.0,29.89,SSW,212,0.0,0.0,83,0.00,,,0.00,,2013-05-15 05:22:00,
2013-05-15 01:32:00,36.0,31.0,29.89,SSW,212,0.0,0.0,82,0.00,,,0.00,,2013-05-15 05:32:00,
2013-05-15 01:42:00,36.0,31.0,29.89,SSW,212,0.0,0.0,82,0.00,,,0.00,,2013-05-15 05:42:00,
2013-05-15 01:52:00,35.0,30.0,29.88,SSW,212,0.0,0.0,83,0.00,,,0.00,,2013-05-15 05:52:00,
2013-05-15 02:02:00,35.0,30.0,29.88,SSW,212,0.0,0.0,83,0.00,,,0.00,,2013-05-15 06:02:00,
2013-05-15 02:11:00,35.0,30.0,29.88,SSW,212,0.0,0.0,83,0.00,,,0.00,,2013-05-15 06:11:00,
2013-05-15 02:21:00,35.0,30.0,29.88,SSW,212,0.0,0.0,83,0.00,,,0.00,,2013-05-15 06:21:00,
2013-05-15 02:32:00,32.0,28.0,29.88,SSW,212,0.0,0.0,86,0.00,,,0.00,,2013-05-15 06:32:00,
2013-05-15 02:42:00,32.0,28.0,29.88,SSW,212,0.0,0.0,86,0.00,,,0.00,,2013-05-15 06:42:00,
2013-05-15 02:52:00,32.0,28.0,29.88,SSW,212,0.0,0.0,86,0.00,,,0.00,,2013-05-15 06:52:00,
2013-05-15 03:01:00,31.0,28.0,29.88,SSW,212,0.0,0.0,87,0.00,,,0.00,,2013-05-15 07:01:00,
2013-05-15 03:11:00,31.0,28.0,29.88,SSW,212,0.0,0.0,87,0.00,,,0.00,,2013-05-15 07:11:00,
2013-05-15 03:21:00,30.0,27.0,29.88,SSW,212,0.0,0.0,89,0.00,,,0.00,,2013-05-15 07:21:00,
2013-05-15 03:22:00,31.0,28.0,29.88,SSW,212,0.0,0.0,87,0.00,,,0.00,,2013-05-15 07:22:00,
2013-05-15 03:32:00,31.0,28.0,29.88,SSW,212,0.0,0.0,89,0.00,,,0.00,,2013-05-15 07:32:00,
2013-05-15 03:41:00,31.0,28.0,29.88,SSW,212,0.0,0.0,89,0.00,,,0.00,,2013-05-15 07:41:00,
2013-05-15 03:52:00,30.0,27.0,29.88,SSW,212,0.0,0.0,89,0.00,,,0.00,,2013-05-15 07:52:00,
2013-05-15 04:02:00,30.0,27.0,29.88,SSW,212,0.0,0.0,89,0.00,,,0.00,,2013-05-15 08:02:00,
2013-05-15 04:12:00,30.0,27.0,29.88,SSW,212,0.0,0.0,89,0.00,,,0.00,,2013-05-15 08:12:00,
2013-05-15 04:42:00,29.0,26.0,29.89,SSW,212,0.0,0.0,90,0.00,,,0.00,,2013-05-15 08:42:00,
2013-05-15 04:53:00,29.0,26.0,29.89,SSW,212,0.0,0.0,90,0.00,,,0.00,,2013-05-15 08:53:00,
2013-05-15 05:01:00,29.0,26.0,29.89,SSW,212,0.0,0.0,90,0.00,,,0.00,,2013-05-15 09:01:00,
2013-05-15 05:12:00,29.0,26.0,29.89,SSW,212,0.0,0.0,90,0.00,,,0.00,,2013-05-15 09:12:00,
2013-05-15 05:21:00,29.0,26.0,29.89,SSW,212,0.0,0.0,90,0.00,,,0.00,,2013-05-15 09:21:00,
2013-05-15 05:33:00,28.0,26.0,29.89,SSW,212,0.0,0.0,91,0.00,,,0.00,,2013-05-15 09:33:00,
2013-05-15 05:42:00,28.0,26.0,29.89,SSW,212,0.0,0.0,91,0.00,,,0.00,,2013-05-15 09:42:00,
2013-05-15 05:53:00,28.0,26.0,29.89,SSW,212,0.0,0.0,91,0.00,,,0.00,,2013-05-15 09:53:00,
2013-05-15 06:02:00,28.0,26.0,29.89,SSW,212,0.0,0.0,91,0.00,,,0.00,,2013-05-15 10:02:00,
2013-05-15 06:13:00,28.0,26.0,29.89,SSW,212,0.0,0.0,91,0.00,,,0.00,,2013-05-15 10:13:00,
2013-05-15 06:22:00,28.0,26.0,29.89,SSW,212,0.0,0.0,91,0.00,,,0.00,,2013-05-15 10:22:00,
2013-05-15 06:56:00,31.0,29.0,29.90,SSW,212,0.0,0.0,94,0.00,,,0.00,,2013-05-15 10:56:00,
2013-05-15 07:13:00,30.0,28.0,29.90,SSW,212,0.0,0.0,93,0.00,,,0.00,,2013-05-15 11:13:00,
2013-05-15 07:19:00,31.0,29.0,29.90,SSW,212,0.0,0.0,94,0.00,,,0.00,,2013-05-15 11:19:00,
2013-05-15 07:28:00,31.0,29.0,29.90,SSW,212,0.0,0.0,94,0.00,,,0.00,,2013-05-15 11:28:00,
2013-05-15 07:38:00,31.0,29.0,29.90,SSW,212,0.0,0.0,94,0.00,,,0.00,,2013-05-15 11:38:00,
2013-05-15 07:47:00,31.0,29.0,29.90,SSW,212,0.0,0.0,94,0.00,,,0.00,,2013-05-15 11:47:00,
2013-05-15 08:02:00,39.0,32.0,29.89,SSW,212,0.0,1.0,75,0.00,,,0.00,,2013-05-15 12:02:00,
2013-05-15 08:11:00,37.0,30.0,29.90,SSW,212,0.0,0.0,76,0.00,,,0.00,,2013-05-15 12:11:00,
2013-05-15 08:29:00,39.0,32.0,29.89,SSW,212,0.0,1.0,75,0.00,,,0.00,,2013-05-15 12:29:00,
2013-05-15 08:37:00,39.0,32.0,29.89,SSW,212,0.0,1.0,75,0.00,,,0.00,,2013-05-15 12:37:00,
2013-05-15 08:47:00,39.0,32.0,29.89,SSW,212,0.0,1.0,75,0.00,,,0.00,,2013-05-15 12:47:00,
2013-05-15 08:54:00,39.0,32.0,29.89,SSW,212,0.0,1.0,75,0.00,,,0.00,,2013-05-15 12:54:00,
2013-05-15 10:39:00,57.0,27.0,29.85,WNW,288,6.0,6.0,31,0.00,,,0.00,,2013-05-15 14:39:00,
2013-05-15 10:52:00,57.0,27.0,29.85,WNW,288,6.0,6.0,31,0.00,,,0.00,,2013-05-15 14:52:00,
2013-05-15 10:59:00,57.0,27.0,29.85,WNW,288,6.0,6.0,31,0.00,,,0.00,,2013-05-15 14:59:00,
2013-05-15 12:10:00,60.0,30.0,29.81,SSW,198,0.0,6.0,32,0.00,,,0.00,,2013-05-15 16:10:00,
2013-05-15 12:13:00,61.0,32.0,29.79,ENE,65,0.0,3.0,33,0.00,,,0.00,,2013-05-15 16:13:00,
2013-05-15 12:24:00,60.0,30.0,29.81,SSW,198,0.0,6.0,32,0.00,,,0.00,,2013-05-15 16:24:00,
2013-05-15 12:51:00,61.0,32.0,29.79,ENE,65,0.0,3.0,33,0.00,,,0.00,,2013-05-15 16:51:00,
2013-05-15 13:01:00,61.0,32.0,29.79,ENE,65,0.0,3.0,33,0.00,,,0.00,,2013-05-15 17:01:00,
2013-05-15 13:11:00,61.0,32.0,29.79,ENE,65,0.0,3.0,33,0.00,,,0.00,,2013-05-15 17:11:00,
2013-05-15 14:09:00,63.0,29.0,29.72,NE,40,0.0,8.0,27,0.00,,,0.00,,2013-05-15 18:09:00,
2013-05-15 14:28:00,64.0,30.0,29.72,SW,233,7.0,8.0,28,0.00,,,0.00,,2013-05-15 18:28:00,
2013-05-15 14:38:00,63.0,29.0,29.72,NE,40,0.0,8.0,27,0.00,,,0.00,,2013-05-15 18:38:00,
2013-05-15 14:49:00,63.0,29.0,29.72,NE,40,0.0,8.0,27,0.00,,,0.00,,2013-05-15 18:49:00,
2013-05-15 14:57:00,63.0,29.0,29.72,NE,40,0.0,8.0,27,0.00,,,0.00,,2013-05-15 18:57:00,
2013-05-15 16:30:00,61.0,33.0,29.67,ENE,71,2.0,11.0,35,0.00,,,0.00,,2013-05-15 20:30:00,
2013-05-15 16:40:00,61.0,33.0,29.67,ENE,71,2.0,11.0,35,0.00,,,0.00,,2013-05-15 20:40:00,
2013-05-15 16:47:00,61.0,33.0,29.67,ENE,71,2.0,11.0,35,0.00,,,0.00,,2013-05-15 20:47:00,
2013-05-15 16:51:00,57.0,35.0,29.64,ESE,110,7.0,13.0,43,0.00,,,0.00,,2013-05-15 20:51:00,
2013-05-15 16:53:00,59.0,33.0,29.65,ENE,76,9.0,12.0,37,0.00,,,0.00,,2013-05-15 20:53:00,
2013-05-15 17:09:00,59.0,33.0,29.65,ENE,76,9.0,12.0,37,0.00,,,0.00,,2013-05-15 21:09:00,
2013-05-15 17:20:00,57.0,35.0,29.64,ESE,110,7.0,13.0,43,0.00,,,0.00,,2013-05-15 21:20:00,
2013-05-15 17:28:00,57.0,35.0,29.64,ESE,110,7.0,13.0,43,0.00,,,0.00,,2013-05-15 21:28:00,
2013-05-15 17:41:00,57.0,35.0,29.64,ESE,110,7.0,13.0,43,0.00,,,0.00,,2013-05-15 21:41:00,
2013-05-15 17:56:00,55.0,35.0,29.64,NE,44,1.0,7.0,47,0.00,,,0.00,,2013-05-15 21:56:00,
2013-05-15 18:29:00,50.0,44.0,29.62,ENE,72,0.0,0.0,81,0.03,,,0.03,,2013-05-15 22:29:00,
2013-05-15 18:37:00,49.0,46.0,29.63,SSE,151,0.0,0.0,90,0.05,,,0.07,,2013-05-15 22:37:00,
2013-05-15 18:40:00,50.0,44.0,29.62,ENE,72,0.0,0.0,81,0.03,,,0.03,,2013-05-15 22:40:00,
2013-05-15 18:50:00,50.0,44.0,29.62,ENE,72,0.0,0.0,81,0.03,,,0.03,,2013-05-15 22:50:00,
2013-05-15 19:09:00,49.0,46.0,29.63,SSE,151,0.0,0.0,90,0.05,,,0.07,,2013-05-15 23:09:00,
2013-05-15 19:17:00,49.0,46.0,29.63,SSE,151,0.0,0.0,90,0.05,,,0.07,,2013-05-15 23:17:00,